TimeCDT,TemperatureF,Dew PointF,Humidity,Sea Level PressureIn,VisibilityMPH,Wind Direction,Wind SpeedMPH,Gust SpeedMPH,PrecipitationIn,Events,Conditions,WindDirDegrees,DateUTC
12:11 AM,50.0,48.2,94,30.05,5.0,Calm,Calm,-,N/A,,Clear,0,2013-07-11 05:11:00
12:31 AM,50.0,46.4,87,30.05,5.0,Calm,Calm,-,N/A,,Clear,0,2013-07-11 05:31:00
12:51 AM,48.2,46.4,93,30.06,5.0,Calm,Calm,-,N/A,,Clear,0,2013-07-11 05:51:00
1:11 AM,48.2,46.4,93,30.06,5.0,Calm,Calm,-,N/A,,Clear,0,2013-07-11 06:11:00
1:31 AM,48.2,46.4,93,30.06,5.0,Calm,Calm,-,N/A,,Clear,0,2013-07-11 06:31:00
1:52 AM,48.2,46.4,93,30.06,2.5,Calm,Calm,-,N/A,,Clear,0,2013-07-11 06:52:00
2:11 AM,46.4,44.6,93,30.06,4.0,Calm,Calm,-,N/A,,Clear,0,2013-07-11 07:11:00
2:31 AM,46.4,44.6,93,30.06,4.0,Calm,Calm,-,N/A,,Clear,0,2013-07-11 07:31:00
2:51 AM,46.4,44.6,93,30.07,4.0,Calm,Calm,-,N/A,,Clear,0,2013-07-11 07:51:00
3:11 AM,46.4,44.6,93,30.07,4.0,Calm,Calm,-,N/A,,Clear,0,2013-07-11 08:11:00
3:31 AM,46.4,44.6,93,30.07,4.0,Calm,Calm,-,N/A,,Clear,0,2013-07-11 08:31:00
3:51 AM,46.4,44.6,93,30.08,5.0,Calm,Calm,-,N/A,,Clear,0,2013-07-11 08:51:00
4:11 AM,44.6,44.6,100,-9999,5.0,Calm,Calm,-,N/A,,Clear,0,2013-07-11 09:11:00
4:31 AM,44.6,44.6,100,30.08,3.0,Calm,Calm,-,N/A,,Clear,0,2013-07-11 09:31:00
4:51 AM,44.6,44.6,100,30.09,4.0,Calm,Calm,-,N/A,,Clear,0,2013-07-11 09:51:00
5:11 AM,44.6,42.8,93,30.10,5.0,Calm,Calm,-,N/A,,Clear,0,2013-07-11 10:11:00
5:31 AM,44.6,42.8,93,30.09,4.0,Calm,Calm,-,N/A,,Clear,0,2013-07-11 10:31:00
5:51 AM,44.6,42.8,93,30.09,2.5,Calm,Calm,-,N/A,,Clear,0,2013-07-11 10:51:00
6:11 AM,44.6,44.6,100,30.10,3.0,Calm,Calm,-,N/A,,Clear,0,2013-07-11 11:11:00
6:31 AM,46.4,44.6,93,30.10,4.0,Calm,Calm,-,N/A,,Clear,0,2013-07-11 11:31:00
6:51 AM,48.2,46.4,93,30.10,4.0,Calm,Calm,-,N/A,,Clear,0,2013-07-11 11:51:00
7:11 AM,53.6,51.8,94,30.10,5.0,Calm,Calm,-,N/A,,Clear,0,2013-07-11 12:11:00
7:31 AM,55.4,55.4,100,30.10,7.0,Calm,Calm,-,N/A,,Clear,0,2013-07-11 12:31:00
7:51 AM,59.0,57.2,94,30.10,10.0,Calm,Calm,-,N/A,,Clear,0,2013-07-11 12:51:00
8:11 AM,60.8,57.2,88,30.10,10.0,Calm,Calm,-,N/A,,Clear,0,2013-07-11 13:11:00
8:31 AM,62.6,60.8,94,30.10,10.0,South,3.5,-,N/A,,Clear,180,2013-07-11 13:31:00
8:51 AM,66.2,60.8,83,30.10,10.0,South,3.5,-,N/A,,Clear,170,2013-07-11 13:51:00
9:11 AM,68.0,60.8,78,30.10,10.0,SSW,4.6,-,N/A,,Clear,200,2013-07-11 14:11:00
9:31 AM,69.8,59.0,68,30.09,10.0,SSE,4.6,-,N/A,,Clear,160,2013-07-11 14:31:00
9:51 AM,71.6,60.8,69,30.09,10.0,South,4.6,-,N/A,,Clear,170,2013-07-11 14:51:00
10:11 AM,73.4,59.0,61,30.09,10.0,South,4.6,-,N/A,,Clear,170,2013-07-11 15:11:00
10:31 AM,73.4,60.8,65,30.09,10.0,Calm,Calm,-,N/A,,Clear,0,2013-07-11 15:31:00
10:51 AM,75.2,59.0,57,30.08,10.0,South,3.5,-,N/A,,Clear,180,2013-07-11 15:51:00
11:11 AM,75.2,57.2,53,30.08,10.0,SSE,5.8,-,N/A,,Clear,160,2013-07-11 16:11:00
11:31 AM,75.2,57.2,53,30.07,10.0,South,5.8,-,N/A,,Clear,190,2013-07-11 16:31:00
11:51 AM,75.2,55.4,50,30.07,10.0,SSW,5.8,-,N/A,,Clear,210,2013-07-11 16:51:00
12:11 PM,78.8,57.2,47,30.06,10.0,SW,4.6,-,N/A,,Scattered Clouds,220,2013-07-11 17:11:00
12:31 PM,78.8,55.4,44,30.05,10.0,South,9.2,-,N/A,,Scattered Clouds,180,2013-07-11 17:31:00
12:51 PM,78.8,55.4,44,30.05,10.0,South,8.1,-,N/A,,Scattered Clouds,180,2013-07-11 17:51:00
1:11 PM,78.8,55.4,44,30.04,10.0,SW,6.9,-,N/A,,Scattered Clouds,220,2013-07-11 18:11:00
1:31 PM,78.8,55.4,44,30.04,10.0,South,8.1,-,N/A,,Scattered Clouds,190,2013-07-11 18:31:00
1:51 PM,78.8,57.2,47,30.04,10.0,SSW,5.8,-,N/A,,Scattered Clouds,210,2013-07-11 18:51:00
2:11 PM,80.6,55.4,42,30.03,10.0,SSW,9.2,-,N/A,,Scattered Clouds,200,2013-07-11 19:11:00
2:32 PM,80.6,57.2,45,30.03,10.0,South,8.1,-,N/A,,Scattered Clouds,180,2013-07-11 19:32:00
2:51 PM,80.6,55.4,42,30.02,10.0,SW,8.1,-,N/A,,Scattered Clouds,220,2013-07-11 19:51:00
3:11 PM,80.6,55.4,42,30.01,10.0,SSW,9.2,-,N/A,,Scattered Clouds,200,2013-07-11 20:11:00
3:31 PM,80.6,55.4,42,30.01,10.0,South,5.8,-,N/A,,Clear,170,2013-07-11 20:31:00
3:51 PM,82.4,55.4,39,30.01,10.0,South,8.1,-,N/A,,Scattered Clouds,190,2013-07-11 20:51:00
4:11 PM,80.6,55.4,42,30.00,10.0,South,3.5,-,N/A,,Scattered Clouds,170,2013-07-11 21:11:00
4:31 PM,80.6,55.4,42,29.99,10.0,SSE,4.6,-,N/A,,Scattered Clouds,160,2013-07-11 21:31:00
4:51 PM,80.6,55.4,42,29.99,10.0,South,5.8,-,N/A,,Scattered Clouds,180,2013-07-11 21:51:00
5:11 PM,80.6,57.2,45,29.98,10.0,SSW,4.6,-,N/A,,Scattered Clouds,200,2013-07-11 22:11:00
5:31 PM,82.4,55.4,39,29.98,10.0,South,6.9,-,N/A,,Scattered Clouds,190,2013-07-11 22:31:00
5:51 PM,80.6,53.6,39,29.97,10.0,South,8.1,-,N/A,,Scattered Clouds,170,2013-07-11 22:51:00
6:11 PM,80.6,55.4,42,29.97,10.0,SSW,6.9,-,N/A,,Clear,200,2013-07-11 23:11:00
6:31 PM,80.6,55.4,42,29.97,10.0,South,5.8,-,N/A,,Clear,180,2013-07-11 23:31:00
6:51 PM,80.6,53.6,39,29.96,10.0,South,4.6,-,N/A,,Clear,190,2013-07-11 23:51:00
7:11 PM,78.8,53.6,42,29.96,10.0,South,5.8,-,N/A,,Clear,180,2013-07-12 00:11:00
7:31 PM,78.8,55.4,44,29.96,10.0,South,4.6,-,N/A,,Clear,190,2013-07-12 00:31:00
7:51 PM,77.0,55.4,47,29.95,10.0,Calm,Calm,-,N/A,,Clear,0,2013-07-12 00:51:00
8:11 PM,75.2,55.4,50,29.94,10.0,Calm,Calm,-,N/A,,Clear,0,2013-07-12 01:11:00
8:31 PM,69.8,53.6,56,29.94,10.0,Calm,Calm,-,N/A,,Clear,0,2013-07-12 01:31:00
8:51 PM,64.4,51.8,64,29.95,10.0,Calm,Calm,-,N/A,,Clear,0,2013-07-12 01:51:00
9:11 PM,62.6,53.6,72,29.95,10.0,Calm,Calm,-,N/A,,Clear,0,2013-07-12 02:11:00
9:31 PM,60.8,53.6,77,29.95,10.0,Calm,Calm,-,N/A,,Clear,0,2013-07-12 02:31:00
9:51 PM,60.8,53.6,77,29.95,7.0,Calm,Calm,-,N/A,,Clear,0,2013-07-12 02:51:00
10:11 PM,59.0,53.6,82,29.95,10.0,Calm,Calm,-,N/A,,Clear,0,2013-07-12 03:11:00
10:31 PM,59.0,53.6,82,29.95,10.0,Calm,Calm,-,N/A,,Clear,0,2013-07-12 03:31:00
10:51 PM,57.2,53.6,88,29.95,10.0,Calm,Calm,-,N/A,,Clear,0,2013-07-12 03:51:00
11:11 PM,59.0,55.4,88,29.95,10.0,Calm,Calm,-,N/A,,Clear,0,2013-07-12 04:11:00
11:31 PM,60.8,57.2,88,29.95,10.0,Calm,Calm,-,N/A,,Clear,0,2013-07-12 04:31:00
11:51 PM,62.6,57.2,82,29.95,10.0,Calm,Calm,-,N/A,,Clear,0,2013-07-12 04:51:00